| time (UTC) | temp F | wind direction | speed MPH | gust MPH | rain 1hr in | rain 24hr in | rain mn in | humidity % | barometer mb |
| 20260508153430 | 69 | 278 | 13.0 | 20.0 | 0.00 | 0.00 | 0.00 | 34 | 1010.6 |
| 20260508152925 | 68 | 292 | 13.0 | 21.0 | 0.00 | 0.00 | 0.00 | 37 | 1010.5 |
| 20260508152422 | 68 | 283 | 11.0 | 19.0 | 0.00 | 0.00 | 0.00 | 38 | 1010.6 |
| 20260508151919 | 67 | 267 | 15.0 | 20.0 | 0.00 | 0.00 | 0.00 | 39 | 1010.1 |
| 20260508151416 | 67 | 272 | 19.0 | 20.0 | 0.00 | 0.00 | 0.00 | 41 | 1010.6 |
| 20260508150912 | 66 | 256 | 19.0 | 22.0 | 0.00 | 0.00 | 0.00 | 42 | 1010.8 |
| 20260508150409 | 66 | 272 | 20.0 | 22.0 | 0.00 | 0.00 | 0.00 | 43 | 1010.9 |
| 20260508145905 | 66 | 261 | 13.0 | 20.0 | 0.00 | 0.00 | 0.00 | 46 | 1010.6 |
| 20260508145401 | 65 | 272 | 16.0 | 20.0 | 0.00 | 0.00 | 0.00 | 49 | 1010.4 |
| 20260508144858 | 65 | 272 | 11.0 | 22.0 | 0.00 | 0.00 | 0.00 | 49 | 1010.5 |
| 20260508144356 | 65 | 248 | 20.0 | 24.0 | 0.00 | 0.00 | 0.00 | 51 | 1010.4 |
| 20260508143853 | 63 | 248 | 22.0 | 22.0 | 0.00 | 0.00 | 0.00 | 55 | 1010.3 |
| 20260508143350 | 63 | 248 | 24.0 | 26.0 | 0.00 | 0.00 | 0.00 | 55 | 1010.5 |
| 20260508142847 | 62 | 251 | 20.0 | 24.0 | 0.00 | 0.00 | 0.00 | 59 | 1010.6 |
| 20260508142344 | 62 | 242 | 23.0 | 24.0 | 0.00 | 0.00 | 0.00 | 59 | 1010.5 |
| 20260508141840 | 61 | 248 | 19.0 | 22.0 | 0.00 | 0.00 | 0.00 | 62 | 1010.6 |
| 20260508141337 | 60 | 253 | 17.0 | 22.0 | 0.00 | 0.00 | 0.00 | 64 | 1010.5 |
| 20260508140835 | 60 | 243 | 18.0 | 19.0 | 0.00 | 0.00 | 0.00 | 67 | 1010.7 |
| 20260508140331 | 59 | 257 | 16.0 | 22.0 | 0.00 | 0.00 | 0.00 | 69 | 1010.6 |
| 20260508135827 | 59 | 250 | 23.0 | 24.0 | 0.00 | 0.00 | 0.00 | 69 | 1010.6 |
| 20260508135324 | 58 | 251 | 20.0 | 25.0 | 0.00 | 0.00 | 0.00 | 71 | 1010.7 |
| 20260508134820 | 57 | 255 | 18.0 | 22.0 | 0.00 | 0.00 | 0.00 | 72 | 1010.6 |
| 20260508134317 | 57 | 248 | 13.0 | 21.0 | 0.00 | 0.00 | 0.00 | 73 | 1010.5 |
| 20260508133813 | 56 | 246 | 22.0 | 23.0 | 0.00 | 0.00 | 0.00 | 74 | 1010.6 |
| 20260508133312 | 56 | 238 | 14.0 | 21.0 | 0.00 | 0.00 | 0.00 | 75 | 1010.6 |
| 20260508132808 | 54 | 245 | 12.0 | 16.0 | 0.00 | 0.00 | 0.00 | 78 | 1010.6 |
| 20260508132307 | 53 | 253 | 10.0 | 14.0 | 0.00 | 0.00 | 0.00 | 79 | 1010.3 |
| 20260508131802 | 52 | 255 | 7.0 | 12.0 | 0.00 | 0.00 | 0.00 | 80 | 1010.4 |
| 20260508131258 | 51 | 256 | 9.0 | 10.0 | 0.00 | 0.00 | 0.00 | 81 | 1010.4 |
| 20260508130754 | 51 | 247 | 9.0 | 13.0 | 0.00 | 0.00 | 0.00 | 82 | 1010.4 |
| 20260508130252 | 50 | 238 | 9.0 | 11.0 | 0.00 | 0.00 | 0.00 | 82 | 1010.5 |
| 20260508125748 | 50 | 228 | 8.0 | 9.0 | 0.00 | 0.00 | 0.00 | 83 | 1010.5 |
| 20260508125244 | 49 | 247 | 6.0 | 9.0 | 0.00 | 0.00 | 0.00 | 83 | 1010.5 |
| 20260508124742 | 49 | 241 | 8.0 | 9.0 | 0.00 | 0.00 | 0.00 | 83 | 1010.4 |
| 20260508124239 | 48 | 243 | 7.0 | 11.0 | 0.00 | 0.00 | 0.00 | 83 | 1010.3 |
| 20260508123738 | 50 | 246 | 9.0 | 12.0 | 0.00 | 0.00 | 0.00 | 83 | 1010.3 |
| 20260508123235 | 48 | 269 | 6.0 | 9.0 | 0.00 | 0.00 | 0.00 | 84 | 1010.0 |
| 20260508122731 | 46 | 290 | 6.0 | 12.0 | 0.00 | 0.00 | 0.00 | 84 | 1010.4 |
| 20260508122228 | 47 | 334 | 8.0 | 9.0 | 0.00 | 0.00 | 0.00 | 84 | 1010.3 |
| 20260508121726 | 47 | 298 | 6.0 | 8.0 | 0.00 | 0.00 | 0.00 | 85 | 1009.8 |
| 20260508121224 | 46 | 255 | 7.0 | 8.0 | 0.00 | 0.00 | 0.00 | 84 | 1010.1 |
| 20260508120721 | 47 | 244 | 8.0 | 9.0 | 0.00 | 0.00 | 0.00 | 85 | 1010.1 |
| 20260508120219 | 45 | 331 | 6.0 | 7.0 | 0.00 | 0.00 | 0.00 | 84 | 1010.0 |
| 20260508115716 | 47 | 336 | 4.0 | 8.0 | 0.00 | 0.00 | 0.00 | 84 | 1010.1 |
| 20260508115213 | 45 | 256 | 5.0 | 7.0 | 0.00 | 0.00 | 0.00 | 85 | 1009.8 |
| 20260508114710 | 44 | 243 | 7.0 | 8.0 | 0.00 | 0.00 | 0.00 | 85 | 1010.0 |
| 20260508114207 | 44 | 237 | 7.0 | 8.0 | 0.00 | 0.00 | 0.00 | 84 | 1009.9 |
| 20260508113703 | 44 | 237 | 6.0 | 8.0 | 0.00 | 0.00 | 0.00 | 84 | 1009.9 |
| 20260508113202 | 45 | 239 | 6.0 | 7.0 | 0.00 | 0.00 | 0.00 | 84 | 1010.0 |
| 20260508112658 | 46 | 222 | 7.0 | 8.0 | 0.00 | 0.00 | 0.00 | 83 | 1010.0 |
| 20260508112155 | 47 | 222 | 7.0 | 9.0 | 0.00 | 0.00 | 0.00 | 83 | 1010.1 |
| 20260508111651 | 47 | 221 | 9.0 | 11.0 | 0.00 | 0.00 | 0.00 | 83 | 1010.3 |
| 20260508111149 | 47 | 223 | 8.0 | 9.0 | 0.00 | 0.00 | 0.00 | 82 | 1009.9 |
| 20260508110646 | 47 | 227 | 8.0 | 9.0 | 0.00 | 0.00 | 0.00 | 82 | 1009.9 |
| 20260508110143 | 47 | 221 | 8.0 | 9.0 | 0.00 | 0.00 | 0.00 | 82 | 1010.0 |
| 20260508105637 | 48 | 222 | 8.0 | 10.0 | 0.00 | 0.00 | 0.00 | 81 | 1010.1 |
| 20260508105135 | 48 | 220 | 8.0 | 9.0 | 0.00 | 0.00 | 0.00 | 81 | 1010.0 |
| 20260508104632 | 48 | 218 | 9.0 | 10.0 | 0.00 | 0.00 | 0.00 | 80 | 1010.1 |
| 20260508104129 | 49 | 223 | 8.0 | 10.0 | 0.00 | 0.00 | 0.00 | 79 | 1010.1 |
| 20260508103626 | 49 | 214 | 7.0 | 9.0 | 0.00 | 0.00 | 0.00 | 79 | 1010.0 |
| 20260508103123 | 50 | 213 | 8.0 | 9.0 | 0.00 | 0.00 | 0.00 | 78 | 1010.3 |
| 20260508102620 | 49 | 223 | 8.0 | 9.0 | 0.00 | 0.00 | 0.00 | 78 | 1010.0 |
| 20260508102119 | 49 | 222 | 8.0 | 9.0 | 0.00 | 0.00 | 0.00 | 78 | 1010.3 |
| 20260508101616 | 49 | 221 | 7.0 | 8.0 | 0.00 | 0.00 | 0.00 | 77 | 1010.4 |
| 20260508101113 | 49 | 203 | 7.0 | 10.0 | 0.00 | 0.00 | 0.00 | 77 | 1010.3 |
| 20260508100610 | 49 | 224 | 9.0 | 11.0 | 0.00 | 0.00 | 0.00 | 77 | 1010.4 |
| 20260508100108 | 49 | 224 | 11.0 | 11.0 | 0.00 | 0.00 | 0.00 | 77 | 1010.5 |
| 20260508095604 | 49 | 221 | 9.0 | 11.0 | 0.00 | 0.00 | 0.00 | 76 | 1010.4 |
| 20260508095101 | 49 | 220 | 7.0 | 10.0 | 0.00 | 0.00 | 0.00 | 75 | 1010.3 |
| 20260508094558 | 50 | 215 | 9.0 | 11.0 | 0.00 | 0.00 | 0.00 | 75 | 1010.5 |
| 20260508094055 | 50 | 217 | 9.0 | 9.0 | 0.00 | 0.00 | 0.00 | 74 | 1010.4 |
| 20260508093552 | 50 | 208 | 7.0 | 8.0 | 0.00 | 0.00 | 0.00 | 73 | 1010.5 |
| 20260508093050 | 51 | 218 | 8.0 | 9.0 | 0.00 | 0.00 | 0.00 | 72 | 1010.4 |
| 20260508092547 | 51 | 216 | 9.0 | 11.0 | 0.00 | 0.00 | 0.00 | 71 | 1010.8 |
| 20260508092046 | 52 | 224 | 11.0 | 11.0 | 0.00 | 0.00 | 0.00 | 71 | 1010.7 |
| 20260508091542 | 52 | 204 | 8.0 | 11.0 | 0.00 | 0.00 | 0.00 | 70 | 1010.5 |
| 20260508091039 | 53 | 200 | 11.0 | 13.0 | 0.00 | 0.00 | 0.00 | 69 | 1010.7 |
| 20260508090538 | 53 | 202 | 11.0 | 13.0 | 0.00 | 0.00 | 0.00 | 69 | 1010.5 |
| 20260508090034 | 53 | 196 | 11.0 | 11.0 | 0.00 | 0.00 | 0.00 | 69 | 1010.5 |
| 20260508085530 | 53 | 216 | 9.0 | 12.0 | 0.00 | 0.00 | 0.00 | 68 | 1010.7 |
| 20260508085027 | 53 | 215 | 11.0 | 15.0 | 0.00 | 0.00 | 0.00 | 68 | 1010.6 |
| 20260508084524 | 53 | 223 | 11.0 | 15.0 | 0.00 | 0.00 | 0.00 | 67 | 1010.6 |
| 20260508084022 | 53 | 219 | 11.0 | 13.0 | 0.00 | 0.00 | 0.00 | 67 | 1010.8 |
| 20260508083519 | 53 | 206 | 11.0 | 12.0 | 0.00 | 0.00 | 0.00 | 66 | 1010.8 |
| 20260508083015 | 53 | 211 | 9.0 | 13.0 | 0.00 | 0.00 | 0.00 | 66 | 1010.8 |
| 20260508082511 | 53 | 210 | 8.0 | 11.0 | 0.00 | 0.00 | 0.00 | 65 | 1010.7 |
| 20260508082009 | 53 | 204 | 10.0 | 13.0 | 0.00 | 0.00 | 0.00 | 65 | 1010.7 |
| 20260508081506 | 53 | 203 | 9.0 | 13.0 | 0.00 | 0.00 | 0.00 | 65 | 1010.9 |
| 20260508081002 | 53 | 215 | 9.0 | 12.0 | 0.00 | 0.00 | 0.00 | 65 | 1010.9 |
| 20260508080500 | 52 | 223 | 14.0 | 15.0 | 0.00 | 0.00 | 0.00 | 65 | 1011.2 |
| 20260508075956 | 53 | 222 | 10.0 | 12.0 | 0.00 | 0.00 | 0.00 | 64 | 1011.1 |
| 20260508075454 | 52 | 220 | 10.0 | 12.0 | 0.00 | 0.00 | 0.00 | 64 | 1010.8 |
| 20260508074951 | 52 | 220 | 8.0 | 12.0 | 0.00 | 0.00 | 0.00 | 64 | 1011.2 |
| 20260508074449 | 52 | 223 | 10.0 | 12.0 | 0.00 | 0.00 | 0.00 | 64 | 1011.1 |
| 20260508073945 | 52 | 226 | 12.0 | 13.0 | 0.00 | 0.00 | 0.00 | 63 | 1011.2 |
| 20260508073443 | 52 | 227 | 12.0 | 14.0 | 0.00 | 0.00 | 0.00 | 62 | 1011.3 |
| 20260508072940 | 53 | 229 | 11.0 | 14.0 | 0.00 | 0.00 | 0.00 | 61 | 1011.1 |
| 20260508072436 | 54 | 237 | 9.0 | 15.0 | 0.00 | 0.00 | 0.00 | 60 | 1011.1 |
| 20260508071933 | 55 | 230 | 10.0 | 15.0 | 0.00 | 0.00 | 0.00 | 59 | 1010.9 |
| 20260508071431 | 56 | 221 | 12.0 | 16.0 | 0.00 | 0.00 | 0.00 | 57 | 1011.1 |
| 20260508070929 | 56 | 223 | 12.0 | 17.0 | 0.00 | 0.00 | 0.00 | 57 | 1010.9 |
| 20260508070426 | 57 | 217 | 12.0 | 16.0 | 0.00 | 0.00 | 0.00 | 56 | 1011.1 |
| 20260508065924 | 57 | 216 | 13.0 | 16.0 | 0.00 | 0.00 | 0.00 | 56 | 1011.1 |
| 20260508065422 | 57 | 218 | 11.0 | 17.0 | 0.00 | 0.00 | 0.00 | 55 | 1011.2 |
| 20260508064920 | 57 | 210 | 11.0 | 17.0 | 0.00 | 0.00 | 0.00 | 55 | 1011.1 |
| 20260508064417 | 57 | 214 | 12.0 | 15.0 | 0.00 | 0.00 | 0.00 | 55 | 1011.1 |
| 20260508063915 | 58 | 212 | 12.0 | 17.0 | 0.00 | 0.00 | 0.00 | 54 | 1010.9 |
| 20260508063412 | 57 | 214 | 11.0 | 14.0 | 0.00 | 0.00 | 0.00 | 54 | 1011.2 |
| 20260508062909 | 58 | 216 | 11.0 | 13.0 | 0.00 | 0.00 | 0.00 | 54 | 1011.1 |
| 20260508062407 | 58 | 210 | 10.0 | 14.0 | 0.00 | 0.00 | 0.00 | 53 | 1010.9 |
| 20260508061904 | 58 | 204 | 13.0 | 16.0 | 0.00 | 0.00 | 0.00 | 52 | 1011.1 |
| 20260508061401 | 58 | 196 | 9.0 | 14.0 | 0.00 | 0.00 | 0.00 | 51 | 1011.3 |
| 20260508060857 | 58 | 199 | 11.0 | 12.0 | 0.00 | 0.00 | 0.00 | 51 | 1011.3 |
| 20260508060355 | 58 | 199 | 12.0 | 13.0 | 0.00 | 0.00 | 0.00 | 50 | 1011.1 |
| 20260508055850 | 58 | 204 | 10.0 | 13.0 | 0.00 | 0.00 | 0.00 | 49 | 1011.3 |
| 20260508055348 | 58 | 198 | 12.0 | 14.0 | 0.00 | 0.00 | 0.00 | 49 | 1011.1 |
| 20260508054844 | 59 | 203 | 11.0 | 14.0 | 0.00 | 0.00 | 0.00 | 48 | 1011.4 |
| 20260508054341 | 59 | 201 | 12.0 | 16.0 | 0.00 | 0.00 | 0.00 | 47 | 1011.4 |
| 20260508053838 | 59 | 213 | 11.0 | 13.0 | 0.00 | 0.00 | 0.00 | 46 | 1011.5 |
| 20260508053336 | 60 | 198 | 12.0 | 15.0 | 0.00 | 0.00 | 0.00 | 45 | 1011.4 |
| 20260508052833 | 60 | 194 | 13.0 | 16.0 | 0.00 | 0.00 | 0.00 | 45 | 1011.4 |
| 20260508052330 | 60 | 191 | 11.0 | 15.0 | 0.00 | 0.00 | 0.00 | 45 | 1011.5 |
| 20260508051826 | 60 | 197 | 13.0 | 15.0 | 0.00 | 0.00 | 0.00 | 44 | 1011.5 |
| 20260508051322 | 60 | 196 | 9.0 | 12.0 | 0.00 | 0.00 | 0.00 | 43 | 1011.5 |
| 20260508050818 | 60 | 195 | 11.0 | 13.0 | 0.00 | 0.00 | 0.00 | 42 | 1011.4 |
| 20260508050316 | 61 | 197 | 11.0 | 15.0 | 0.00 | 0.00 | 0.00 | 41 | 1011.7 |
| 20260508045811 | 61 | 194 | 12.0 | 14.0 | 0.00 | 0.00 | 0.00 | 41 | 1011.6 |
| 20260508045309 | 61 | 193 | 13.0 | 15.0 | 0.00 | 0.00 | 0.00 | 41 | 1011.5 |
| 20260508044807 | 60 | 188 | 11.0 | 13.0 | 0.00 | 0.00 | 0.00 | 40 | 1011.4 |
| 20260508044303 | 61 | 199 | 9.0 | 13.0 | 0.00 | 0.00 | 0.00 | 40 | 1011.4 |
| 20260508043759 | 62 | 194 | 11.0 | 14.0 | 0.00 | 0.00 | 0.00 | 39 | 1011.7 |
| 20260508043257 | 62 | 200 | 11.0 | 14.0 | 0.00 | 0.00 | 0.00 | 38 | 1011.7 |
| 20260508042753 | 62 | 199 | 13.0 | 15.0 | 0.00 | 0.00 | 0.00 | 38 | 1011.5 |
| 20260508042251 | 62 | 199 | 12.0 | 14.0 | 0.00 | 0.00 | 0.00 | 38 | 1011.7 |
| 20260508041747 | 62 | 189 | 10.0 | 15.0 | 0.00 | 0.00 | 0.00 | 38 | 1011.7 |
| 20260508041244 | 62 | 189 | 9.0 | 12.0 | 0.00 | 0.00 | 0.00 | 38 | 1011.5 |
| 20260508040740 | 62 | 192 | 10.0 | 12.0 | 0.00 | 0.00 | 0.00 | 38 | 1011.4 |
| 20260508040238 | 62 | 188 | 8.0 | 11.0 | 0.00 | 0.00 | 0.00 | 38 | 1011.5 |
| 20260508035735 | 62 | 190 | 8.0 | 11.0 | 0.00 | 0.00 | 0.00 | 38 | 1011.6 |
| 20260508035232 | 62 | 186 | 9.0 | 10.0 | 0.00 | 0.00 | 0.00 | 38 | 1011.6 |
| 20260508034729 | 62 | 191 | 9.0 | 9.0 | 0.00 | 0.00 | 0.00 | 37 | 1011.8 |
| 20260508034226 | 63 | 183 | 8.0 | 11.0 | 0.00 | 0.00 | 0.00 | 37 | 1011.7 |
| 20260508033723 | 63 | 180 | 9.0 | 11.0 | 0.00 | 0.00 | 0.00 | 36 | 1011.5 |
| 20260508033222 | 64 | 180 | 9.0 | 13.0 | 0.00 | 0.00 | 0.00 | 36 | 1011.6 |
| 20260508032719 | 63 | 183 | 8.0 | 9.0 | 0.00 | 0.00 | 0.00 | 36 | 1011.5 |
| 20260508032215 | 64 | 184 | 8.0 | 10.0 | 0.00 | 0.00 | 0.00 | 35 | 1011.4 |
| 20260508031712 | 64 | 192 | 8.0 | 11.0 | 0.00 | 0.00 | 0.00 | 35 | 1011.3 |
| 20260508031208 | 65 | 187 | 8.0 | 11.0 | 0.00 | 0.00 | 0.00 | 35 | 1011.4 |
| 20260508030705 | 65 | 186 | 10.0 | 11.0 | 0.00 | 0.00 | 0.00 | 34 | 1011.2 |
| 20260508030203 | 65 | 180 | 9.0 | 12.0 | 0.00 | 0.00 | 0.00 | 34 | 1011.1 |
| 20260508025659 | 65 | 191 | 8.0 | 9.0 | 0.00 | 0.00 | 0.00 | 34 | 1011.1 |
| 20260508025156 | 65 | 173 | 7.0 | 10.0 | 0.00 | 0.00 | 0.00 | 34 | 1011.1 |
| 20260508024652 | 66 | 191 | 7.0 | 9.0 | 0.00 | 0.00 | 0.00 | 33 | 1010.6 |
| 20260508024149 | 66 | 191 | 7.0 | 10.0 | 0.00 | 0.00 | 0.00 | 33 | 1010.7 |
| 20260508023645 | 66 | 179 | 7.0 | 9.0 | 0.00 | 0.00 | 0.00 | 32 | 1010.8 |
| 20260508023143 | 66 | 197 | 8.0 | 10.0 | 0.00 | 0.00 | 0.00 | 31 | 1010.8 |
| 20260508022638 | 66 | 180 | 9.0 | 11.0 | 0.00 | 0.00 | 0.00 | 30 | 1010.9 |
| 20260508022136 | 66 | 167 | 8.0 | 12.0 | 0.00 | 0.00 | 0.00 | 27 | 1010.6 |
| 20260508021632 | 66 | 174 | 7.0 | 8.0 | 0.00 | 0.00 | 0.00 | 26 | 1010.4 |
| 20260508021127 | 68 | 191 | 7.0 | 8.0 | 0.00 | 0.00 | 0.00 | 24 | 1010.4 |
| 20260508020626 | 68 | 205 | 7.0 | 8.0 | 0.00 | 0.00 | 0.00 | 24 | 1010.4 |
| 20260508020123 | 69 | 199 | 8.0 | 10.0 | 0.00 | 0.00 | 0.00 | 23 | 1010.5 |
| 20260508015620 | 69 | 202 | 8.0 | 9.0 | 0.00 | 0.00 | 0.00 | 24 | 1010.4 |
| 20260508015117 | 69 | 198 | 7.0 | 10.0 | 0.00 | 0.00 | 0.00 | 24 | 1010.1 |
| 20260508014613 | 69 | 205 | 6.0 | 9.0 | 0.00 | 0.00 | 0.00 | 24 | 1010.1 |
| 20260508014110 | 69 | 210 | 9.0 | 10.0 | 0.00 | 0.00 | 0.00 | 24 | 1010.3 |
| 20260508013606 | 70 | 220 | 9.0 | 13.0 | 0.00 | 0.00 | 0.00 | 23 | 1010.1 |
| 20260508013103 | 71 | 219 | 8.0 | 10.0 | 0.00 | 0.00 | 0.00 | 23 | 1010.1 |
| 20260508012600 | 71 | 226 | 8.0 | 13.0 | 0.00 | 0.00 | 0.00 | 23 | 1010.3 |
| 20260508012057 | 72 | 221 | 11.0 | 13.0 | 0.00 | 0.00 | 0.00 | 22 | 1010.1 |
| 20260508011556 | 72 | 223 | 10.0 | 13.0 | 0.00 | 0.00 | 0.00 | 22 | 1010.1 |
| 20260508011053 | 72 | 217 | 7.0 | 11.0 | 0.00 | 0.00 | 0.00 | 22 | 1009.9 |
| 20260508010549 | 73 | 213 | 9.0 | 14.0 | 0.00 | 0.00 | 0.00 | 21 | 1010.0 |
| 20260508010047 | 73 | 228 | 11.0 | 19.0 | 0.00 | 0.00 | 0.00 | 21 | 1010.0 |
| 20260508005543 | 73 | 229 | 18.0 | 22.0 | 0.00 | 0.00 | 0.00 | 21 | 1010.1 |
| 20260508005040 | 74 | 244 | 17.0 | 18.0 | 0.00 | 0.00 | 0.00 | 21 | 1009.9 |
| 20260508004536 | 74 | 230 | 14.0 | 16.0 | 0.00 | 0.00 | 0.00 | 21 | 1010.3 |
| 20260508004033 | 74 | 254 | 12.0 | 16.0 | 0.00 | 0.00 | 0.00 | 21 | 1010.3 |
| 20260508003530 | 74 | 218 | 12.0 | 15.0 | 0.00 | 0.00 | 0.00 | 21 | 1010.3 |
| 20260508003027 | 74 | 227 | 15.0 | 16.0 | 0.00 | 0.00 | 0.00 | 21 | 1010.3 |
| 20260508002523 | 74 | 229 | 22.0 | 24.0 | 0.00 | 0.00 | 0.00 | 21 | 1010.1 |
| 20260508002021 | 74 | 230 | 20.0 | 22.0 | 0.00 | 0.00 | 0.00 | 21 | 1010.3 |
| 20260508001516 | 75 | 228 | 13.0 | 20.0 | 0.00 | 0.00 | 0.00 | 21 | 1010.5 |
| 20260508001013 | 74 | 203 | 11.0 | 18.0 | 0.00 | 0.00 | 0.00 | 22 | 1010.3 |
| 20260508000509 | 75 | 228 | 16.0 | 23.0 | 0.00 | 0.00 | 0.00 | 22 | 1010.1 |
| 20260508000006 | 75 | 243 | 15.0 | 22.0 | 0.00 | 0.00 | 0.00 | 22 | 1010.1 |
| 20260507235503 | 74 | 242 | 13.0 | 20.0 | 0.00 | 0.00 | 0.00 | 22 | 1010.3 |
| 20260507235000 | 74 | 248 | 13.0 | 14.0 | 0.00 | 0.00 | 0.00 | 21 | 1010.4 |
| 20260507234456 | 74 | 244 | 10.0 | 19.0 | 0.00 | 0.00 | 0.00 | 23 | 1010.3 |
| 20260507233953 | 74 | 227 | 10.0 | 21.0 | 0.00 | 0.00 | 0.00 | 23 | 1010.4 |
| 20260507233450 | 74 | 244 | 20.0 | 23.0 | 0.00 | 0.00 | 0.00 | 23 | 1010.4 |
| 20260507232948 | 74 | 228 | 11.0 | 17.0 | 0.00 | 0.00 | 0.00 | 23 | 1010.4 |
| 20260507232444 | 74 | 214 | 10.0 | 20.0 | 0.00 | 0.00 | 0.00 | 23 | 1010.5 |
| 20260507231942 | 74 | 212 | 16.0 | 21.0 | 0.00 | 0.00 | 0.00 | 23 | 1010.5 |
| 20260507231438 | 74 | 220 | 21.0 | 25.0 | 0.00 | 0.00 | 0.00 | 23 | 1010.3 |
| 20260507230935 | 75 | 235 | 11.0 | 17.0 | 0.00 | 0.00 | 0.00 | 24 | 1010.5 |
| 20260507230432 | 74 | 249 | 18.0 | 21.0 | 0.00 | 0.00 | 0.00 | 24 | 1010.7 |
| 20260507225932 | 74 | 239 | 24.0 | 30.0 | 0.00 | 0.00 | 0.00 | 23 | 1010.5 |
| 20260507225428 | 73 | 231 | 12.0 | 16.0 | 0.00 | 0.00 | 0.00 | 25 | 1010.6 |
| 20260507224925 | 73 | 234 | 14.0 | 17.0 | 0.00 | 0.00 | 0.00 | 24 | 1010.5 |
| 20260507224421 | 73 | 228 | 12.0 | 17.0 | 0.00 | 0.00 | 0.00 | 25 | 1010.8 |
| 20260507223918 | 72 | 251 | 9.0 | 11.0 | 0.00 | 0.00 | 0.00 | 27 | 1010.8 |
| 20260507223414 | 73 | 234 | 27.0 | 28.0 | 0.00 | 0.00 | 0.00 | 26 | 1010.7 |
| 20260507222911 | 74 | 240 | 20.0 | 23.0 | 0.00 | 0.00 | 0.00 | 23 | 1010.8 |
| 20260507222408 | 73 | 214 | 13.0 | 18.0 | 0.00 | 0.00 | 0.00 | 26 | 1010.9 |
| 20260507221905 | 73 | 252 | 14.0 | 29.0 | 0.00 | 0.00 | 0.00 | 27 | 1010.7 |
| 20260507221401 | 72 | 234 | 11.0 | 19.0 | 0.00 | 0.00 | 0.00 | 28 | 1011.2 |
| 20260507220857 | 72 | 227 | 10.0 | 22.0 | 0.00 | 0.00 | 0.00 | 28 | 1011.2 |
| 20260507220356 | 71 | 246 | 19.0 | 22.0 | 0.00 | 0.00 | 0.00 | 27 | 1011.3 |
| 20260507215852 | 72 | 231 | 11.0 | 18.0 | 0.00 | 0.00 | 0.00 | 28 | 1011.2 |
| 20260507215348 | 71 | 187 | 17.0 | 24.0 | 0.00 | 0.00 | 0.00 | 29 | 1011.5 |
| 20260507214845 | 71 | 254 | 18.0 | 21.0 | 0.00 | 0.00 | 0.00 | 29 | 1011.3 |
| 20260507214343 | 70 | 228 | 19.0 | 23.0 | 0.00 | 0.00 | 0.00 | 29 | 1011.4 |
| 20260507213838 | 71 | 238 | 13.0 | 18.0 | 0.00 | 0.00 | 0.00 | 29 | 1011.7 |
| 20260507213335 | 71 | 211 | 20.0 | 23.0 | 0.00 | 0.00 | 0.00 | 29 | 1011.7 |
| 20260507212832 | 71 | 233 | 15.0 | 18.0 | 0.00 | 0.00 | 0.00 | 28 | 1011.8 |
| 20260507212327 | 71 | 180 | 11.0 | 17.0 | 0.00 | 0.00 | 0.00 | 29 | 1011.8 |
| 20260507211824 | 71 | 204 | 12.0 | 21.0 | 0.00 | 0.00 | 0.00 | 30 | 1012.1 |
| 20260507211321 | 71 | 208 | 17.0 | 20.0 | 0.00 | 0.00 | 0.00 | 30 | 1012.3 |
| 20260507210818 | 70 | 203 | 16.0 | 24.0 | 0.00 | 0.00 | 0.00 | 30 | 1012.1 |
| 20260507210315 | 69 | 199 | 15.0 | 16.0 | 0.00 | 0.00 | 0.00 | 31 | 1012.4 |
| 20260507205811 | 70 | 215 | 14.0 | 18.0 | 0.00 | 0.00 | 0.00 | 30 | 1012.4 |
| 20260507205309 | 70 | 204 | 15.0 | 22.0 | 0.00 | 0.00 | 0.00 | 30 | 1012.8 |
| 20260507204804 | 69 | 222 | 12.0 | 22.0 | 0.00 | 0.00 | 0.00 | 32 | 1012.6 |
| 20260507204302 | 69 | 221 | 10.0 | 18.0 | 0.00 | 0.00 | 0.00 | 32 | 1012.9 |
| 20260507203800 | 68 | 216 | 11.0 | 24.0 | 0.00 | 0.00 | 0.00 | 32 | 1013.1 |
| 20260507203258 | 68 | 245 | 9.0 | 16.0 | 0.00 | 0.00 | 0.00 | 32 | 1013.2 |
| 20260507202753 | 68 | 211 | 8.0 | 12.0 | 0.00 | 0.00 | 0.00 | 32 | 1013.1 |
| 20260507202249 | 69 | 200 | 15.0 | 17.0 | 0.00 | 0.00 | 0.00 | 32 | 1013.1 |
| 20260507201744 | 68 | 265 | 8.0 | 17.0 | 0.00 | 0.00 | 0.00 | 32 | 1013.4 |
| 20260507201241 | 68 | 191 | 11.0 | 12.0 | 0.00 | 0.00 | 0.00 | 33 | 1013.6 |
| 20260507200738 | 67 | 224 | 9.0 | 20.0 | 0.00 | 0.00 | 0.00 | 33 | 1013.6 |
| 20260507200234 | 67 | 226 | 14.0 | 22.0 | 0.00 | 0.00 | 0.00 | 33 | 1013.7 |
| 20260507195730 | 67 | 173 | 9.0 | 13.0 | 0.00 | 0.00 | 0.00 | 35 | 1014.0 |
| 20260507195228 | 68 | 244 | 11.0 | 17.0 | 0.00 | 0.00 | 0.00 | 33 | 1014.1 |
| 20260507194724 | 67 | 203 | 12.0 | 22.0 | 0.00 | 0.00 | 0.00 | 33 | 1014.2 |
| 20260507194220 | 66 | 190 | 4.0 | 15.0 | 0.00 | 0.00 | 0.00 | 38 | 1014.1 |
| 20260507193717 | 66 | 205 | 14.0 | 17.0 | 0.00 | 0.00 | 0.00 | 37 | 1014.3 |
| 20260507193214 | 67 | 221 | 19.0 | 22.0 | 0.00 | 0.00 | 0.00 | 36 | 1014.5 |
| 20260507192710 | 65 | 271 | 4.0 | 16.0 | 0.00 | 0.00 | 0.00 | 39 | 1014.8 |
| 20260507192207 | 65 | 222 | 13.0 | 17.0 | 0.00 | 0.00 | 0.00 | 39 | 1014.7 |
| 20260507191703 | 66 | 208 | 12.0 | 18.0 | 0.00 | 0.00 | 0.00 | 39 | 1014.7 |
| 20260507191201 | 64 | 264 | 6.0 | 12.0 | 0.00 | 0.00 | 0.00 | 41 | 1014.8 |
| 20260507190657 | 63 | 219 | 11.0 | 20.0 | 0.00 | 0.00 | 0.00 | 43 | 1014.9 |
| 20260507190156 | 64 | 201 | 11.0 | 18.0 | 0.00 | 0.00 | 0.00 | 42 | 1014.9 |
| 20260507185654 | 63 | 247 | 10.0 | 20.0 | 0.00 | 0.00 | 0.00 | 43 | 1015.1 |
| 20260507185150 | 62 | 287 | 7.0 | 16.0 | 0.00 | 0.00 | 0.00 | 44 | 1015.3 |
| 20260507184648 | 61 | 261 | 17.0 | 19.0 | 0.00 | 0.00 | 0.00 | 46 | 1015.1 |
| 20260507184146 | 61 | 225 | 5.0 | 9.0 | 0.00 | 0.00 | 0.00 | 44 | 1015.4 |
| 20260507183642 | 62 | 248 | 17.0 | 22.0 | 0.00 | 0.00 | 0.00 | 44 | 1015.7 |
| 20260507183139 | 61 | 248 | 14.0 | 17.0 | 0.00 | 0.00 | 0.00 | 47 | 1015.7 |
| 20260507182636 | 61 | 300 | 13.0 | 17.0 | 0.00 | 0.00 | 0.00 | 46 | 1015.7 |
| 20260507182132 | 60 | 249 | 15.0 | 24.0 | 0.00 | 0.00 | 0.00 | 48 | 1015.8 |
| 20260507181628 | 61 | 227 | 15.0 | 17.0 | 0.00 | 0.00 | 0.00 | 47 | 1015.8 |
| 20260507181125 | 60 | 241 | 13.0 | 18.0 | 0.00 | 0.00 | 0.00 | 49 | 1015.8 |
| 20260507180621 | 59 | 243 | 18.0 | 22.0 | 0.00 | 0.00 | 0.00 | 49 | 1015.8 |
| 20260507180118 | 60 | 201 | 8.0 | 20.0 | 0.00 | 0.00 | 0.00 | 49 | 1016.2 |
| 20260507175614 | 58 | 206 | 12.0 | 22.0 | 0.00 | 0.00 | 0.00 | 51 | 1016.3 |
| 20260507175112 | 58 | 217 | 13.0 | 24.0 | 0.00 | 0.00 | 0.00 | 51 | 1016.5 |
| 20260507174609 | 57 | 243 | 8.0 | 24.0 | 0.00 | 0.00 | 0.00 | 52 | 1016.6 |
| 20260507174107 | 58 | 230 | 15.0 | 20.0 | 0.00 | 0.00 | 0.00 | 51 | 1016.7 |
| 20260507173603 | 58 | 229 | 25.0 | 25.0 | 0.00 | 0.00 | 0.00 | 50 | 1016.5 |
| 20260507173100 | 57 | 248 | 11.0 | 22.0 | 0.00 | 0.00 | 0.00 | 53 | 1016.7 |
| 20260507172556 | 56 | 246 | 18.0 | 19.0 | 0.00 | 0.00 | 0.00 | 54 | 1016.7 |
| 20260507172053 | 57 | 220 | 14.0 | 24.0 | 0.00 | 0.00 | 0.00 | 53 | 1016.8 |
| 20260507171548 | 57 | 208 | 13.0 | 22.0 | 0.00 | 0.00 | 0.00 | 52 | 1016.8 |
| 20260507171046 | 57 | 249 | 14.0 | 25.0 | 0.00 | 0.00 | 0.00 | 52 | 1016.7 |
| 20260507170543 | 57 | 247 | 10.0 | 15.0 | 0.00 | 0.00 | 0.00 | 54 | 1016.8 |
| 20260507170040 | 56 | 247 | 14.0 | 16.0 | 0.00 | 0.00 | 0.00 | 54 | 1017.1 |
| 20260507165535 | 55 | 219 | 12.0 | 14.0 | 0.00 | 0.00 | 0.00 | 54 | 1017.1 |
| 20260507165032 | 54 | 198 | 9.0 | 14.0 | 0.00 | 0.00 | 0.00 | 56 | 1017.2 |
| 20260507164528 | 54 | 208 | 14.0 | 25.0 | 0.00 | 0.00 | 0.00 | 56 | 1017.3 |
| 20260507164026 | 54 | 233 | 7.0 | 12.0 | 0.00 | 0.00 | 0.00 | 57 | 1017.4 |
| 20260507163523 | 54 | 213 | 16.0 | 29.0 | 0.00 | 0.00 | 0.00 | 56 | 1017.6 |
| 20260507163021 | 54 | 229 | 11.0 | 17.0 | 0.00 | 0.00 | 0.00 | 57 | 1017.6 |
| 20260507162515 | 53 | 246 | 10.0 | 20.0 | 0.00 | 0.00 | 0.00 | 59 | 1017.7 |
| 20260507162012 | 53 | 165 | 8.0 | 13.0 | 0.00 | 0.00 | 0.00 | 58 | 1017.6 |
| 20260507161509 | 53 | 186 | 8.0 | 17.0 | 0.00 | 0.00 | 0.00 | 59 | 1017.6 |
| 20260507161006 | 53 | 194 | 13.0 | 22.0 | 0.00 | 0.00 | 0.00 | 58 | 1017.7 |
| 20260507160501 | 52 | 247 | 7.0 | 16.0 | 0.00 | 0.00 | 0.00 | 60 | 1017.7 |
| 20260507155957 | 51 | 213 | 11.0 | 18.0 | 0.00 | 0.00 | 0.00 | 61 | 1017.9 |
| 20260507155453 | 52 | 190 | 13.0 | 14.0 | 0.00 | 0.00 | 0.00 | 60 | 1017.9 |
| 20260507154950 | 51 | 209 | 2.0 | 11.0 | 0.00 | 0.00 | 0.00 | 61 | 1018.0 |
| 20260507154447 | 51 | 183 | 7.0 | 16.0 | 0.00 | 0.00 | 0.00 | 62 | 1018.1 |
| 20260507153944 | 50 | 179 | 5.0 | 13.0 | 0.00 | 0.00 | 0.00 | 62 | 1018.0 |